This is the latest recevied weather packets stored in our database for station/object BMCB-2. If no packets are shown the sender has not sent any weather packets the latest 10 day(s).
| Time | Temp. | Humidity | Pressure | Rain* | Wind** | Luminosity | Snow |
|---|---|---|---|---|---|---|---|
| 1778004666 | 9.44° C | 10% | 1009.8 hPa | 2.03 mm | - | - | - |
| 1778001060 | 9.44° C | 10% | 1009.8 hPa | 1.02 mm | - | - | - |
| 1777999261 | 9.44° C | 10% | 1009.9 hPa | 0.51 mm | - | - | - |
| 1777997460 | 10° C | 10% | 1010 hPa | 0 mm | - | - | - |
| 1777993857 | 10° C | 10% | 1010.2 hPa | 0 mm | - | - | - |
| 1777974658 | 10.56° C | 10% | 1011.4 hPa | 0 mm | - | - | - |
| 1777966858 | 11.11° C | 10% | 1011.5 hPa | 0.25 mm | - | - | - |
| 1777966258 | 11.11° C | 10% | 1011.5 hPa | 0.25 mm | - | - | - |
| 1777965059 | 11.11° C | 10% | 1011.6 hPa | 0.25 mm | - | - | - |
| 1777963254 | 11.67° C | 10% | 1011.7 hPa | 0.25 mm | - | - | - |
| 1777959658 | 11.67° C | 10% | 1011.6 hPa | 0.51 mm | - | - | - |
| 1777957857 | 11.67° C | 10% | 1011.5 hPa | 0.76 mm | - | - | - |
| 1777949456 | 11.11° C | 10% | 1012.5 hPa | 0 mm | - | - | - |
| 1777948259 | 11.11° C | 10% | 1012.4 hPa | 0 mm | - | - | - |
| 1777945256 | 11.11° C | 10% | 1012.3 hPa | 0 mm | - | - | - |
| 1777939857 | 10.56° C | 10% | 1013.1 hPa | 0 mm | - | - | - |
| 1777935662 | 10° C | 99% | 1013.6 hPa | 0 mm | - | 0 W/m² | - |
| 1777935069 | 10° C | 10% | 1013.6 hPa | 0 mm | - | - | - |
| 1777927872 | 10.56° C | 98% | 1014.3 hPa | 0 mm | - | 0 W/m² | - |
| 1777927272 | 11.11° C | 98% | 1014.4 hPa | 0 mm | - | 0 W/m² | - |
| 1777926088 | 11.11° C | 98% | 1014.3 hPa | 0 mm | - | 0 W/m² | - |
| 1777924270 | 11.11° C | 97% | 1014.1 hPa | 0 mm | - | 0 W/m² | - |
| 1777923668 | 11.11° C | 97% | 1014 hPa | 0 mm | - | 0 W/m² | - |
| 1777921871 | 11.67° C | 96% | 1013.8 hPa | 0 mm | - | 2 W/m² | - |
| 1777920671 | 11.67° C | 95% | 1013.8 hPa | 0 mm | - | 6 W/m² | - |
* Rain latest hour (hover to see other rain measurements)
** Current wind speed in m/s (hover to see current wind gust speed)